Change the Weather History Date:

Sunday, July 27, 2014

  Actual Average Record
Temperature  
Mean Temperature 68 °F -  
Max Temperature 75 °F 84 °F 101 °F (1955)
Min Temperature 62 °F 61 °F 48 °F (1962)
Cooling Degree Days 4    
Growing Degree Days 18 (Base 50)    
Moisture  
Dew Point 60 °F    
Average Humidity 76    
Maximum Humidity 97    
Minimum Humidity 55    
Precipitation  
Precipitation 0.00 in - - ()
Sea Level Pressure  
Sea Level Pressure 30.01 in    
Wind  
Wind Speed 8 mph (NW)    
Max Wind Speed 20 mph    
Max Gust Speed 28 mph    
Visibility 9 miles    
Events      
Averages and records for this station are not official NWS values.
T = Trace of Precipitation, MM = Missing Value Source: NWS Daily Summary

Daily Weather History Graph

Daily Weather History Graph

Search for Another Location

Airport or City:

Trip Planner

Search our weather history database for the weather conditions in past years. The results will help you decide how hot, cold, wet, or windy it might be!

Date:

Astronomy

Jul. 27, 2014 Rise Set
Actual Time 6:05 AM CDT 8:40 PM CDT
Civil Twilight 5:33 AM CDT 9:11 PM CDT
Nautical Twilight 4:53 AM CDT 9:51 PM CDT
Astronomical Twilight 4:08 AM CDT 10:36 PM CDT
Moon 6:54 AM CDT (7/27) 8:47 PM CDT (7/27)
Length of Visible Light 15h 38m
Length of Day
14h 34m
New Moon, 1% of the Moon is Illuminated
Jul 27
New Moon
Aug 3
First Quarter
Aug 10
Full
Aug 17
Last Quarter
Aug 25
New

Hourly Weather History & Observations

Time (CDT) Temp. Dew Point Humidity Pressure Visibility Wind Dir Wind Speed Gust Speed Precip Events Conditions
12:15 AM 70.0 °F 69.1 °F 97% 29.90 in 5.0 mi NW 3.5 mph - N/A   Clear
12:35 AM 70.0 °F 69.1 °F 97% 29.90 in 4.0 mi NW 4.6 mph - N/A   Clear
12:55 AM 70.5 °F 69.6 °F 97% 29.90 in 5.0 mi NW 4.6 mph - N/A   Scattered Clouds
1:15 AM 70.2 °F 69.1 °F 96% 29.91 in 7.0 mi NW 4.6 mph - N/A   Scattered Clouds
1:35 AM 69.4 °F 68.4 °F 96% 29.91 in 7.0 mi WNW 3.5 mph - N/A   Scattered Clouds
1:55 AM 68.2 °F 67.1 °F 96% 29.91 in 7.0 mi West 4.6 mph - N/A   Clear
2:15 AM 67.6 °F 66.7 °F 97% 29.91 in 7.0 mi West 5.8 mph - N/A   Clear
2:35 AM 66.7 °F 65.8 °F 97% 29.91 in 7.0 mi West 4.6 mph - N/A   Clear
2:55 AM 66.2 °F 65.3 °F 97% 29.91 in 7.0 mi West 4.6 mph - N/A   Clear
3:15 AM 65.5 °F 64.6 °F 97% 29.91 in 7.0 mi West 4.6 mph - N/A   Clear
3:35 AM 64.9 °F 64.0 °F 97% 29.91 in 7.0 mi West 4.6 mph - N/A   Clear
3:55 AM 64.4 °F 63.5 °F 97% 29.91 in 7.0 mi West 3.5 mph - N/A   Clear
4:15 AM 64.6 °F 63.7 °F 97% 29.92 in 10.0 mi WNW 4.6 mph - N/A   Clear
4:35 AM 65.5 °F 63.9 °F 94% 29.92 in 10.0 mi West 5.8 mph - N/A   Clear
4:55 AM 64.2 °F 62.8 °F 95% 29.92 in 10.0 mi West 5.8 mph - N/A   Clear
5:15 AM 64.4 °F 62.6 °F 94% 29.93 in 10.0 mi NW 5.8 mph - N/A   Clear
5:35 AM 65.5 °F 62.8 °F 91% 29.94 in 10.0 mi NW 6.9 mph - N/A   Clear
5:55 AM 64.9 °F 62.6 °F 92% 29.94 in 10.0 mi WNW 4.6 mph - N/A   Clear
6:15 AM 64.6 °F 62.2 °F 92% 29.94 in 10.0 mi WNW 5.8 mph - N/A   Clear
6:35 AM 63.9 °F 61.7 °F 93% 29.96 in 10.0 mi WNW 5.8 mph - N/A   Clear
6:55 AM 63.7 °F 61.5 °F 93% 29.96 in 10.0 mi WNW 4.6 mph - N/A   Clear
7:15 AM 64.8 °F 61.2 °F 88% 29.96 in 10.0 mi WNW 6.9 mph - N/A   Clear
7:35 AM 65.7 °F 60.8 °F 84% 29.97 in 10.0 mi WNW 6.9 mph - N/A   Clear
7:55 AM 67.3 °F 61.2 °F 81% 29.97 in 10.0 mi WNW 6.9 mph - N/A   Clear
8:15 AM 68.4 °F 59.5 °F 73% 29.97 in 10.0 mi WNW 9.2 mph - N/A   Clear
8:35 AM 68.5 °F 59.7 °F 73% 29.97 in 10.0 mi WNW 9.2 mph - N/A   Clear
8:55 AM 69.8 °F 59.9 °F 71% 29.98 in 10.0 mi WNW 8.1 mph - N/A   Clear
9:15 AM 70.7 °F 59.7 °F 68% 29.99 in 10.0 mi WNW 9.2 mph - N/A   Clear
9:35 AM 72.0 °F 59.5 °F 65% 29.99 in 10.0 mi NW 9.2 mph 17.3 mph N/A   Clear
9:55 AM 72.1 °F 57.6 °F 60% 30.00 in 10.0 mi NW 11.5 mph 18.4 mph N/A   Clear
10:15 AM 72.5 °F 57.9 °F 60% 30.00 in 10.0 mi NW 12.7 mph 18.4 mph N/A   Clear
10:35 AM 72.7 °F 57.9 °F 60% 30.00 in 10.0 mi NW 15.0 mph 19.6 mph N/A   Clear
12:15 PM 74.3 °F 58.6 °F 58% 30.02 in 10.0 mi NNW 15.0 mph 26.5 mph N/A   Mostly Cloudy
12:35 PM 74.3 °F 59.4 °F 60% 30.03 in 10.0 mi NW 12.7 mph 21.9 mph N/A   Mostly Cloudy
12:55 PM 74.7 °F 59.2 °F 58% 30.03 in 10.0 mi NNW 13.8 mph 23.0 mph N/A   Mostly Cloudy
1:15 PM 73.8 °F 58.8 °F 59% 30.03 in 10.0 mi NW 12.7 mph 26.5 mph N/A   Mostly Cloudy
1:35 PM 74.7 °F 58.3 °F 57% 30.03 in 10.0 mi NNW 17.3 mph 24.2 mph N/A   Mostly Cloudy
1:55 PM 74.7 °F 58.6 °F 57% 30.03 in 10.0 mi NW 19.6 mph 27.6 mph N/A   Mostly Cloudy
2:15 PM 74.3 °F 57.9 °F 57% 30.04 in 10.0 mi NNW 17.3 mph 25.3 mph N/A   Mostly Cloudy
2:35 PM 73.4 °F 58.6 °F 60% 30.04 in 10.0 mi NNW 12.7 mph 19.6 mph N/A   Mostly Cloudy
2:55 PM 74.3 °F 58.1 °F 57% 30.04 in 10.0 mi NNW 19.6 mph 26.5 mph N/A   Overcast
3:15 PM 75.2 °F 58.6 °F 56% 30.04 in 10.0 mi NW 15.0 mph 21.9 mph N/A   Overcast
3:35 PM 73.8 °F 57.9 °F 58% 30.04 in 10.0 mi NNW 17.3 mph 21.9 mph N/A   Mostly Cloudy
3:55 PM 75.2 °F 59.0 °F 57% 30.04 in 10.0 mi NNW 17.3 mph 23.0 mph N/A   Mostly Cloudy
4:15 PM 73.0 °F 57.9 °F 59% 30.05 in 10.0 mi NNW 16.1 mph 21.9 mph N/A   Mostly Cloudy
4:35 PM 73.2 °F 58.5 °F 60% 30.06 in 10.0 mi NNW 12.7 mph 21.9 mph N/A   Overcast
4:55 PM 72.0 °F 58.1 °F 62% 30.06 in 10.0 mi NW 12.7 mph 21.9 mph N/A   Overcast
5:15 PM 73.8 °F 58.6 °F 59% 30.06 in 10.0 mi NW 16.1 mph 21.9 mph N/A   Mostly Cloudy
5:35 PM 73.9 °F 57.7 °F 57% 30.06 in 10.0 mi NNW 16.1 mph 23.0 mph N/A   Mostly Cloudy
5:55 PM 72.0 °F 57.2 °F 60% 30.06 in 10.0 mi NNW 15.0 mph 24.2 mph N/A   Scattered Clouds
6:15 PM 72.7 °F 55.8 °F 55% 30.06 in 10.0 mi NNW 16.1 mph 25.3 mph N/A   Clear
6:35 PM 72.7 °F 57.4 °F 59% 30.07 in 10.0 mi NW 12.7 mph 20.7 mph N/A   Scattered Clouds
6:55 PM 72.5 °F 57.2 °F 59% 30.07 in 10.0 mi NW 15.0 mph 19.6 mph N/A   Mostly Cloudy
7:15 PM 71.4 °F 56.7 °F 60% 30.08 in 10.0 mi NNW 12.7 mph 20.7 mph N/A   Scattered Clouds
7:35 PM 70.9 °F 57.7 °F 63% 30.08 in 10.0 mi NNW 12.7 mph 16.1 mph N/A   Clear
7:55 PM 70.0 °F 58.1 °F 66% 30.08 in 10.0 mi NNW 9.2 mph - N/A   Clear
8:15 PM 68.9 °F 58.1 °F 68% 30.08 in 10.0 mi NNW 8.1 mph - N/A   Clear
8:35 PM 67.5 °F 57.7 °F 71% 30.08 in 10.0 mi NW 5.8 mph - N/A   Clear
8:55 PM 65.3 °F 58.1 °F 77% 30.09 in 10.0 mi NW 4.6 mph - N/A   Clear
9:15 PM 64.9 °F 58.1 °F 78% 30.09 in 10.0 mi NW 5.8 mph - N/A   Clear
9:35 PM 64.0 °F 58.1 °F 81% 30.10 in 10.0 mi NW 5.8 mph - N/A   Clear
9:55 PM 63.5 °F 58.1 °F 83% 30.11 in 10.0 mi NW 5.8 mph - N/A   Clear
10:15 PM 63.0 °F 57.7 °F 83% 30.11 in 10.0 mi NW 5.8 mph - N/A   Clear
10:35 PM 62.8 °F 57.6 °F 83% 30.12 in 10.0 mi NW 5.8 mph - N/A   Clear
10:55 PM 62.8 °F 57.6 °F 83% 30.12 in 10.0 mi NW 5.8 mph - N/A   Clear
11:15 PM 62.8 °F 57.4 °F 82% 30.13 in 10.0 mi NW 6.9 mph - N/A   Clear
11:55 PM 62.1 °F 57.6 °F 85% 30.13 in 10.0 mi WNW 5.8 mph - N/A   Clear